Powrót do katalogu

COSMOS 839 DEB

AktywnyLEO
NORAD 20014·DEBRIS·🇷🇺 Russia

Wystrzelony Jul 8, 1976 z Plesetsk Cosmodrome

Loading…

Następne Przeloty (najbliższe 24 godziny)

TLE

ŚwieżeSource: Space-Track

Epoka: Sep 14, 2026, 12:39 UTC

1 20014U 76067BT  26257.52727914  .00000319  00000-0  11887-2 0  9992
2 20014  65.9001  84.5732 0649273  59.2905 336.9710 12.47642109618246

Śledź COSMOS 839 DEB w czasie rzeczywistym z AllMySat

Download on the App Store